Tracking 30306 objects as of 23-Apr-2025
HD Live streaming from Space Station
objects crossing your sky now

SL-14 DEB

Track SL-14 DEB now!
10-day predictions


NORAD ID: 19230
Int'l Code: 1978-100Z
Perigee: 1,682.8 km
Apogee: 1,704.5 km
Inclination: 82.5 °
Period: 120.1 minutes
Semi major axis: 8064 km
RCS: 0.0516 m2 (small)
Launch date: October 26, 1978
Source: Commonwealth of Independent States (former USSR) (CIS)
Launch site: PLESETSK MISSILE AND SPACE COMPLEX (PKMTR)

Note: This is SATELLITE DEBRIS
Your satellite tracking list
Your tracking list is empty




NASA's NSSDC Master Catalog

Two Line Element Set (TLE):
1 19230U 78100Z   25112.81714723  .00000141  00000-0  16725-2 0  9994
2 19230  82.5340 239.8099 0013502  15.1049 139.7288 11.98740763615972
Source of the keplerian elements: AFSPC